GLOBALSTAR M004 (25163 NORAD) Tracking and Keplerian Element Data

This shows tracking and keplerian element data for the satellite.

Feedback or suggestion? Click here.




ElementValue
Catalog25163
NameGLOBALSTAR M004
Epoch Orbit24481
Epoch Day34.70876726
Epoch Year2025
RAAN101.3605
Inclination52.0004
Eccentricity0.0002667
Argument of Perigee4.7155
Mean Anonmoly146.7455
Mean Motion12.63387395
Decay Rate-4.5E-07
L11 25163U 98008B 25034.70876726 -.00000045 00000+0 32729-3 0 9994
L22 25163 52.0004 101.3605 0002667 4.7155 146.7455 12.63387395244817



Live tracking and technical data element details for GLOBALSTAR M004 (NORAD 25163). GLOBALSTAR M004 can be tracked NOW for your location showing map with azimuth and elevation plus other details from your city location.







IsCatalogInMostPopularTable: catalog: 25163, numindb: 341
Update: records affected: 1



GetName: 25163 GLOBALSTAR M004

Hit Count: updated at: Thu, 22 May 2025 04:44:49 GMT